This is the latest recevied weather packets stored in our database for station/object 4S6DRJ-13. If no packets are shown the sender has not sent any weather packets the latest 10 day(s).
| Time | Temp. | Humidity | Pressure | Rain* | Wind** | Luminosity | Snow |
|---|---|---|---|---|---|---|---|
| 1787739155 | 29.44° C | 78% | 1008.2 hPa | 0 mm | 4.02 m/s, 268° | 318 W/m² | - |
| 1787739095 | 29.44° C | 78% | 1008 hPa | 0 mm | 2.68 m/s, 233° | 279 W/m² | - |
| 1787739033 | 29.44° C | 78% | 1008.3 hPa | 0 mm | 4.02 m/s, 95° | 320 W/m² | - |
| 1787738972 | 29.44° C | 78% | 1008.1 hPa | 0 mm | 3.58 m/s, 256° | 357 W/m² | - |
| 1787738912 | 29.44° C | 78% | 1008 hPa | 0 mm | 0.89 m/s, 284° | 324 W/m² | - |
| 1787738850 | 29.44° C | 78% | 1008.2 hPa | 0 mm | 1.79 m/s, 209° | 297 W/m² | - |
| 1787738790 | 29.44° C | 78% | 1008.3 hPa | 0 mm | 1.79 m/s, 238° | 304 W/m² | - |
| 1787738729 | 29.44° C | 77% | 1008.1 hPa | 0 mm | 2.24 m/s, 218° | 342 W/m² | - |
| 1787738667 | 29.44° C | 78% | 1008.1 hPa | 0 mm | 3.13 m/s, 194° | 326 W/m² | - |
| 1787738606 | 29.44° C | 78% | 1008.1 hPa | 0 mm | 1.34 m/s, 148° | 326 W/m² | - |
| 1787738545 | 29.44° C | 78% | 1008.1 hPa | 0 mm | 1.34 m/s, 209° | 337 W/m² | - |
| 1787738485 | 29.44° C | 77% | 1008.1 hPa | 0 mm | 1.79 m/s, 194° | 331 W/m² | - |
| 1787738424 | 29.44° C | 77% | 1008.3 hPa | 0 mm | 2.68 m/s, 269° | 415 W/m² | - |
| 1787738363 | 29.44° C | 77% | 1008.1 hPa | 0 mm | 4.02 m/s, 205° | 385 W/m² | - |
| 1787738302 | 29.44° C | 77% | 1008.1 hPa | 0 mm | 3.13 m/s, 277° | 391 W/m² | - |
| 1787738240 | 29.44° C | 77% | 1008 hPa | 0 mm | 4.02 m/s, 234° | 355 W/m² | - |
| 1787738180 | 29.44° C | 77% | 1008.1 hPa | 0 mm | 3.13 m/s, 269° | 358 W/m² | - |
| 1787738118 | 29.44° C | 77% | 1008.1 hPa | 0 mm | 0.45 m/s, 219° | 295 W/m² | - |
| 1787738058 | 29.44° C | 77% | 1008.1 hPa | 0 mm | 1.34 m/s, 225° | 318 W/m² | - |
| 1787737996 | 29.44° C | 77% | 1008.2 hPa | 0 mm | 1.34 m/s, 90° | 397 W/m² | - |
| 1787737935 | 29.44° C | 77% | 1008.2 hPa | 0 mm | 2.24 m/s, 177° | 400 W/m² | - |
| 1787737874 | 29.44° C | 77% | 1008.1 hPa | 0 mm | 1.79 m/s, 267° | 374 W/m² | - |
| 1787737813 | 29.44° C | 76% | 1008.2 hPa | 0 mm | 2.24 m/s, 237° | 378 W/m² | - |
| 1787737753 | 29.44° C | 76% | 1007.9 hPa | 0 mm | 1.79 m/s, 250° | 389 W/m² | - |
| 1787737691 | 29.44° C | 76% | 1008.3 hPa | 0 mm | 1.79 m/s, 252° | 381 W/m² | - |
* Rain latest hour (hover to see other rain measurements)
** Current wind speed in m/s (hover to see current wind gust speed)